CZ-4B DEB, 46484

Orbit data source: Space-Track

CZ-4B DEB, 46484 is space debris in SSO originally from a launch on Sun, 27 Sep 2020 UTC launched from the Taiyaun Space Center, China (TSC). Debris objects in space refer to the collection of defunct objects orbiting the Earth. Examples of debris include non-operational satellites, rocket bodies, and fragments generated from explosions, collisions, or faulty payload assembly.

Loading next visibility...
Identifier
46484, 2020-067G
Orbit
SSO
Country
Flag of CNCN / PRC
Related business
Manufacturer
SAST
Mission
Spacecraft
Bus & Motor
Unknown
Mass
Unknown
Launch date (UTC)
2020-09-27 (5 years ago)
Launch vehicle
Unknown
Launch site
Taiyaun Space Center, China (TSC)
Object type
Payload
Rocket body
Debris
Shape & HBR
Unknown shape, 0.1 m
Radar Cross Section
Small (<0.1 m²)

Expand to show TLE details & history
Last TLE update: 22 hours ago

TLE from 22 hours ago
0 CZ-4B DEB
1 46484U 20067G   25306.40795199  .00005603  00000-0  50228-3 0  9995
2 46484  97.6567   0.4586 0037916  75.4439 285.0982 14.95614321276026
Epoch: 2025-11-02T09:47Z
TLE epoch observation values (Epoch: 2025-11-02T09:47:27.051Z)
Latitude
-0.00014°
Longitude
171.67179°
Altitude
576.736 km
Speed
7.576 km/s
True Right ascension
00h 01m 50s
True Declination
0° 00' 01"
Sunlit
Object was in full shadow at epoch
Visualization orbit readout
Latitude
Unknown
Longitude
Unknown
Altitude
Unknown
Speed
Unknown
Apparent Right ascension
Unknown
Apparent Declination
Unknown
Sunlit
N/A
Visualization observer readout
Local Sidereal Time
04:04:01
Azimuth
Unknown
Elevation
Unknown
Doppler factor
Unknown
Orbital elements
Apogee altitude
603.849 km
Perigee altitude
551.103 km
Semi-major axis
6,955.613 km
Eccentricity
0.00379
Inclination
97.6567°
RAAN
0.4586°
Arg. of periapsis
75.4439°
True anomaly
284.6782°
Mean anomaly
285.0982°
Eccentric anomaly
284.88825°
Mean motion
3.74145 °/min
Orbital period
96.22 mins
BSTAR
0.00050228
Loading maneuver chart data...
Computing Atmospheric mass density...
Loading historical data...
Loading historical data...
Loading historical data...
Loading historical data...
Loading historical data...
Loading historical data...
Loading historical data...

Documentation

Showing up to 5 results
|